Regional Weather Roundup
Issued by NWS

Home | Current Version | Previous Version | Text Only | Print | Product List | Glossary Off
Versions: 1 2 3 4 5 6 7 8 9 10 11 12 13 14 15 16 17 18 19 20 21 22 23 24 25 26 27 28 29 30 31 32 33 34 35 36 37 38 39 40 41 42 43 44 45 46 47 48 49 50

000
ASUS43 KIND 010659
RWRIN

WEATHER ROUNDUP FOR INDIANA
NATIONAL WEATHER SERVICE INDIANAPOLIS IN
300 AM EDT SAT NOV 01 2014

NOTE: "FAIR" INDICATES FEW OR NO CLOUDS BELOW 12,000 FEET WITH NO
SIGNIFICANT WEATHER AND/OR OBSTRUCTIONS TO VISIBILITY.

* - STATION DOES NOT REPORT WEATHER SUCH AS PRECIPITATION OR FOG.

+ - STATION NOT QUALITY CONTROLLED BY THE NATIONAL WEATHER SERVICE.
    USE DATA WITH CAUTION...ESPECIALLY DEWPOINT AND RELATIVE
    HUMIDITY OBSERVATIONS.

INZ001>003-010>013-019-020-010800-
NORTHWEST INDIANA

CITY           SKY/WX    TMP DP  RH WIND       PRES   REMARKS
GARY /AIRPORT/   N/A    N/A N/A N/A MISG        N/A
VALPARAISO     NOT AVBL

$$

LMZ046-743>745-010800-
SOUTHERN LAKE MICHIGAN

STATION/POSITION TIME  TEMP WIND        PRES
                       AIR  DIR/SP/G
                 (UTC) (F)  (DEG/KT/KT) (MB)
MICHIGAN CITY    0600   39  360/ 30/ 35   N/A

$$

INZ004-005-014>016-021>024-010800-
NORTH CENTRAL INDIANA

CITY           SKY/WX    TMP DP  RH WIND       PRES   REMARKS
GOSHEN         CLOUDY    33  22  63 N15G25    30.24R WCI  23
SOUTH BEND     CLEAR     31  20  63 N16       30.29R WCI  20
WARSAW +       CLOUDY    32  23  69 N13G21    30.23R WCI  22

$$

INZ006>009-017-018-025>027-010800-
NORTHEAST INDIANA

CITY           SKY/WX    TMP DP  RH WIND       PRES   REMARKS
ANGOLA *+        N/A     30  18  59 N14       30.19R WCI  20
AUBURN +       CLOUDY    34  23  64 N18G30    30.18R WCI  23
FORT WAYNE     FLURRIES  32  25  75 N22G29    30.18R WCI  19

$$

INZ028-029-035-036-043>045-051>053-010800-
WEST CENTRAL INDIANA

CITY           SKY/WX    TMP DP  RH WIND       PRES   REMARKS
GREENCASTLE +  CLEAR     32  25  74 N9G17     30.23S WCI  24
LAFAYETTE      CLOUDY    32  24  72 N10G17    30.27R WCI  24
TERRE HAUTE    CLOUDY    35  30  82 N12       30.27R WCI  27

$$

INZ030>032-037>040-046>048-054>057-064-065-010800-
CENTRAL INDIANA

CITY           SKY/WX    TMP DP  RH WIND       PRES   REMARKS
CP ATTERBURY + CLOUDY    34  28  80 N17G24    30.18R WCI  23
FRANKFORT +    CLEAR     32  24  72 NW15G23   30.24S WCI  22
INDIANAPOLIS   PTCLDY    31  23  72 N18       30.19R WCI  19
-EAGLE CREEK   PTCLDY    32  24  72 N16G28    30.19S WCI  21
KOKOMO *+      PTCLDY    30  21  69 N15G22    30.22R WCI  19
MT COMFORT *+  MOCLDY    32  21  64 N17G24    30.17S WCI  21
SHELBYVILLE    CLOUDY    34  26  72 N18G32    30.15R WCI  23
ZIONSVILLE +   MOCLDY    31  22  69 N16G23    30.21R WCI  20

$$

INZ033-034-041-042-049-050-058-059-010800-
EAST CENTRAL INDIANA

CITY           SKY/WX    TMP DP  RH WIND       PRES   REMARKS
MUNCIE         CLOUDY    33  25  72 N28       30.14R WCI  20

$$

INZ060-061-067>069-081>083-085>088-010800-
SOUTHWEST INDIANA

CITY           SKY/WX    TMP DP  RH WIND       PRES   REMARKS
EVANSVILLE     CLOUDY    38  26  62 NW14G23   30.25R
HUNTINGBURG *+ MOCLDY    36  27  69 N13G26    30.21R

$$

INZ062-063-066-070>080-084-089>092-010800-
SOUTH CENTRAL AND SOUTHEAST INDIANA

CITY           SKY/WX    TMP DP  RH WIND       PRES   REMARKS
BLOOMINGTON    CLEAR     33  24  69 N20G26    30.20R WCI  21

$$




USA.gov is the U.S. government's official web portal to all federal, state and local government web resources and services.